Location: Isle of Man Observatory
(54.1776°N, 4.6264°W)
Time: 14:56:35
(UTC+02:00)

Envisat - Visible Passes

Search period start: 20 September 2017 00:00
Search period end: 30 September 2017 00:00
Orbit: 764 x 766 km, 98.2° (Epoch: 19 September)

Date Brightness Start Highest point End Pass type
(mag) Time Alt. Az. Time Alt. Az. Time Alt. Az.
20 Sep 3.4 21:07:17 10° SE 21:12:07 46° ENE 21:16:59 10° N visible
20 Sep 4.5 22:46:43 10° SSW 22:51:18 34° W 22:55:56 10° NNW visible
21 Sep 3.4 22:09:21 10° S 22:14:23 64° WSW 22:19:28 10° NNW visible
21 Sep 5.8 23:52:49 10° W 23:54:28 11° W 23:56:06 10° WNW visible
22 Sep 3.0 21:32:35 10° SSE 21:37:39 71° ENE 21:42:43 10° NNW visible
22 Sep 5.2 23:13:17 10° SW 23:17:11 22° W 23:21:07 10° NW visible
23 Sep 3.6 20:56:24 10° SE 21:01:05 39° ENE 21:05:48 10° N visible
23 Sep 4.2 22:35:21 10° SSW 22:40:07 40° W 22:44:56 10° NNW visible
24 Sep 3.1 21:58:10 10° S 22:03:15 76° WSW 22:08:22 10° NNW visible
24 Sep 5.7 23:40:32 10° WSW 23:43:10 14° W 23:45:48 10° NW visible
25 Sep 3.1 21:21:35 10° SSE 21:26:34 59° ENE 21:31:35 10° N visible
25 Sep 4.9 23:01:44 10° SSW 23:05:58 26° W 23:10:14 10° NW visible
26 Sep 3.8 20:45:33 10° ESE 20:50:04 33° ENE 20:54:35 10° N visible
26 Sep 3.8 22:24:03 10° S 22:28:57 49° W 22:33:54 10° NNW visible
27 Sep 3.0 21:47:03 10° SSE 21:52:09 90° NE 21:57:16 10° NNW visible
27 Sep 5.5 23:28:38 10° SW 23:31:54 17° W 23:35:11 10° NW visible
28 Sep 3.2 21:10:38 10° SE 21:15:31 49° ENE 21:20:25 10° N visible
28 Sep 4.6 22:50:15 10° SSW 22:54:45 31° W 22:59:17 10° NNW visible
29 Sep 4.0 20:34:46 10° ESE 20:39:03 28° ENE 20:43:22 10° N visible
29 Sep 3.5 22:12:53 10° S 22:17:48 59° W 22:22:51 10° NNW visible
29 Sep 5.9 23:57:02 10° W 23:57:57 10° W 23:58:51 10° WNW visible
